Millville, NJ

5:53 PM EST on February 22, 2017 (GMT -0500)
Millville Municipal

Weather History for KMIV - January, 2014

Change the Weather History Date:

Friday, January 24, 2014

  Actual Average Record
Temperature  
Mean Temperature 13 °F -  
Max Temperature 19 °F 44 °F 72 °F (1967)
Min Temperature 7 °F 26 °F -5 °F (1961)
Degree Days  
Heating Degree Days 52    
Moisture  
Dew Point 0 °F    
Average Humidity 54    
Maximum Humidity 67    
Minimum Humidity 42    
Precipitation  
Precipitation 0.00 in - - ()
Sea Level Pressure  
Sea Level Pressure 30.36 in    
Wind  
Wind Speed 9 mph (West)    
Max Wind Speed 21 mph    
Max Gust Speed 29 mph    
Visibility 10 miles    
Events      
Averages and records for this station are not official NWS values.
T = Trace of Precipitation, MM = Missing Value Source: NWS Daily Summary

Daily Weather History Graph

Daily Weather History Graph

Search for Another Location

Airport or City:

Trip Planner

Search our weather history database for the weather conditions in past years. The results will help you decide how hot, cold, wet, or windy it might be!

Date:

Astronomy

Jan. 24, 2014 Rise Set
Actual Time 7:13 AM EST 5:11 PM EST
Civil Twilight 6:44 AM EST 5:40 PM EST
Nautical Twilight 6:12 AM EST 6:12 PM EST
Astronomical Twilight 5:40 AM EST 6:44 PM EST
Moon 12:38 AM EST (1/24) 11:28 AM EST (1/24)
Length of Visible Light 10h 55m
Length of Day
9h 57m
Last Quarter, 45% of the Moon is Illuminated
Jan 24
Last Quarter
Jan 30
New
Feb 6
First Quarter
Feb 14
Full
Feb 22
Last Quarter

Hourly Weather History & Observations

Time (EST) Temp. Windchill Dew Point Humidity Pressure Visibility Wind Dir Wind Speed Gust Speed Precip Events Conditions
12:54 AM 10.0 °F -1.9 °F -0.9 °F 61% 30.38 in 10.0 mi West 8.1 mph - N/A   Clear
1:54 AM 12.0 °F -1.3 °F -0.0 °F 59% 30.38 in 10.0 mi WNW 10.4 mph - N/A   Clear
2:54 AM 12.0 °F 0.5 °F -0.0 °F 59% 30.39 in 10.0 mi WNW 8.1 mph - N/A   Clear
3:54 AM 10.9 °F -1.8 °F -0.9 °F 59% 30.39 in 10.0 mi WNW 9.2 mph - N/A   Clear
4:54 AM 7.0 °F -4.5 °F -2.0 °F 67% 30.41 in 10.0 mi West 6.9 mph - N/A   Clear
5:54 AM 9.0 °F -5.9 °F -0.9 °F 64% 30.43 in 10.0 mi WNW 11.5 mph - N/A   Clear
6:54 AM 9.0 °F -5.1 °F -0.9 °F 64% 30.45 in 10.0 mi WNW 10.4 mph - N/A   Clear
7:54 AM 9.0 °F -5.9 °F -0.9 °F 64% 30.47 in 10.0 mi WNW 11.5 mph - N/A   Clear
8:54 AM 12.0 °F -2.7 °F -0.9 °F 56% 30.48 in 10.0 mi WNW 12.7 mph 20.7 mph N/A   Clear
9:54 AM 14.0 °F -3.9 °F -0.9 °F 52% 30.49 in 10.0 mi WNW 20.7 mph 28.8 mph N/A   Clear
10:54 AM 15.1 °F 0.5 °F -0.9 °F 49% 30.48 in 10.0 mi WNW 13.8 mph 20.7 mph N/A   Clear
11:54 AM 17.1 °F 3.6 °F -2.0 °F 43% 30.45 in 10.0 mi NW 12.7 mph - N/A   Clear
12:54 PM 17.1 °F 3.6 °F -0.0 °F 47% 30.40 in 10.0 mi NW 12.7 mph - N/A   Clear
1:54 PM 19.0 °F 5.6 °F -0.9 °F 42% 30.37 in 10.0 mi NW 13.8 mph 19.6 mph N/A   Clear
2:54 PM 18.0 °F 3.6 °F 1.0 °F 48% 30.35 in 10.0 mi West 15.0 mph - N/A   Clear
3:54 PM 18.0 °F 4.8 °F -0.0 °F 45% 30.34 in 10.0 mi West 12.7 mph - N/A   Clear
4:54 PM 15.1 °F 4.2 °F -0.0 °F 51% 30.33 in 10.0 mi West 8.1 mph - N/A   Clear
5:54 PM 15.1 °F - -0.9 °F 49% 30.32 in 10.0 mi Calm Calm - N/A   Clear
6:54 PM 12.9 °F 6.9 °F -0.0 °F 56% 30.31 in 10.0 mi SSW 3.5 mph - N/A   Clear
7:54 PM 15.1 °F - -0.0 °F 51% 30.27 in 10.0 mi Calm Calm - N/A   Clear
8:54 PM 17.1 °F 10.0 °F 1.9 °F 52% 30.26 in 10.0 mi SW 4.6 mph - N/A   Clear
9:54 PM 19.0 °F 12.3 °F 3.0 °F 50% 30.21 in 10.0 mi SSW 4.6 mph - N/A   Clear
10:54 PM 19.0 °F 9.0 °F 3.9 °F 52% 30.19 in 10.0 mi SW 8.1 mph - N/A   Clear
11:54 PM 19.9 °F 12.1 °F 5.0 °F 52% 30.15 in 10.0 mi Variable 5.8 mph - N/A   Clear